When you browse on this site, cookies collect data to enhance your experience and personalize the content and advertising you see.
Visit our Privacy Policy to learn more. By continuing to use the site, you agree to this use of cookies and data.
  • In Deutschland
  • Länderverzeichnis
  • Für 7 Tage
  • Wassertemperatur
  • Satellitenkarten
  • Wetterkarte
  • Widgets
  • user-avatar
    Anmelden

    Stündliche Wetter Olbia

    Heute, 19 Dezember, Mittwoch

    Zeit Temperatur Niederschläge Wind Luftdruck Luftfeuchtigkeit
    00:00 +9°C° 0 mm 1 m/S 768 mmHg 85%
    01:00 +8°C° 0 mm 2 m/S 768 mmHg 84%
    02:00 +8°C° 0 mm 2 m/S 768 mmHg 81%
    03:00 +8°C° 0 mm 2 m/S 767 mmHg 78%
    04:00 +8°C° 0 mm 2 m/S 767 mmHg 75%
    05:00 +7°C° 0 mm 2 m/S 767 mmHg 72%
    06:00 +7°C° 0 mm 2 m/S 767 mmHg 69%
    07:00 +7°C° 0 mm 2 m/S 767 mmHg 66%
    08:00 +9°C° 0 mm 2 m/S 767 mmHg 61%
    09:00 +10°C° 0 mm 2 m/S 767 mmHg 55%
    10:00 +13°C° 0 mm 2 m/S 767 mmHg 49%
    11:00 +13°C° 0 mm 3 m/S 767 mmHg 46%
    12:00 +14°C° 0 mm 3 m/S 766 mmHg 43%
    13:00 +16°C° 0 mm 3 m/S 766 mmHg 40%
    14:00 +16°C° 0 mm 3 m/S 766 mmHg 46%
    15:00 +14°C° 0 mm 3 m/S 765 mmHg 52%
    16:00 +14°C° 0 mm 3 m/S 765 mmHg 58%
    17:00 +13°C° 0 mm 3 m/S 765 mmHg 61%
    18:00 +11°C° 0 mm 3 m/S 765 mmHg 65%
    19:00 +10°C° 0 mm 4 m/S 764 mmHg 68%
    20:00 +11°C° 0.1 mm 4 m/S 764 mmHg 71%
    21:00 +12°C° 0.1 mm 4 m/S 764 mmHg 73%
    22:00 +12°C° 0.1 mm 4 m/S 764 mmHg 75%
    23:00 +12°C° 0.1 mm 4 m/S 764 mmHg 79%

    Morgen, 20 Dezember, Donnerstag

    Zeit Temperatur Niederschläge Wind Luftdruck Luftfeuchtigkeit
    00:00 +13°C° 0.1 mm 4 m/S 764 mmHg 83%
    01:00 +13°C° 0.1 mm 4 m/S 764 mmHg 86%
    02:00 +13°C° 0 mm 4 m/S 764 mmHg 88%
    03:00 +12°C° 0 mm 4 m/S 764 mmHg 89%
    04:00 +11°C° 0 mm 4 m/S 764 mmHg 91%
    05:00 +10°C° 0 mm 5 m/S 765 mmHg 89%
    06:00 +10°C° 0 mm 5 m/S 765 mmHg 87%
    07:00 +10°C° 0 mm 5 m/S 765 mmHg 85%
    08:00 +12°C° 0 mm 5 m/S 766 mmHg 81%
    09:00 +13°C° 0 mm 5 m/S 766 mmHg 78%
    10:00 +13°C° 0 mm 5 m/S 766 mmHg 74%
    11:00 +14°C° 0 mm 6 m/S 766 mmHg 71%
    12:00 +14°C° 0 mm 6 m/S 766 mmHg 68%
    13:00 +15°C° 0 mm 6 m/S 766 mmHg 64%
    14:00 +14°C° 0 mm 6 m/S 766 mmHg 65%
    15:00 +14°C° 0 mm 6 m/S 766 mmHg 65%
    16:00 +14°C° 0 mm 6 m/S 766 mmHg 65%
    17:00 +13°C° 0 mm 6 m/S 767 mmHg 69%
    18:00 +11°C° 0 mm 6 m/S 767 mmHg 72%
    19:00 +11°C° 0 mm 6 m/S 767 mmHg 76%
    20:00 +10°C° 0 mm 6 m/S 768 mmHg 77%
    21:00 +10°C° 0 mm 6 m/S 768 mmHg 78%
    22:00 +10°C° 0 mm 6 m/S 769 mmHg 79%
    23:00 +10°C° 0 mm 6 m/S 769 mmHg 80%

    übermorgen, 21 Dezember, Freitag

    Zeit Temperatur Niederschläge Wind Luftdruck Luftfeuchtigkeit
    00:00 +10°C° 0 mm 6 m/S 769 mmHg 80%
    01:00 +10°C° 0 mm 6 m/S 769 mmHg 81%
    02:00 +10°C° 0 mm 6 m/S 769 mmHg 82%
    03:00 +10°C° 0 mm 6 m/S 769 mmHg 82%
    04:00 +10°C° 0 mm 6 m/S 769 mmHg 83%
    05:00 +10°C° 0 mm 6 m/S 770 mmHg 84%
    06:00 +10°C° 0 mm 6 m/S 770 mmHg 85%
    07:00 +10°C° 0 mm 5 m/S 770 mmHg 86%
    08:00 +11°C° 0 mm 6 m/S 771 mmHg 83%
    09:00 +13°C° 0 mm 6 m/S 771 mmHg 80%
    10:00 +13°C° 0 mm 6 m/S 771 mmHg 77%
    11:00 +14°C° 0 mm 6 m/S 771 mmHg 74%
    12:00 +14°C° 0 mm 6 m/S 771 mmHg 71%
    13:00 +15°C° 0 mm 6 m/S 771 mmHg 68%
    14:00 +15°C° 0 mm 6 m/S 771 mmHg 69%
    15:00 +14°C° 0 mm 6 m/S 770 mmHg 70%
    16:00 +14°C° 0 mm 6 m/S 770 mmHg 72%
    17:00 +13°C° 0 mm 6 m/S 770 mmHg 76%
    18:00 +11°C° 0 mm 6 m/S 771 mmHg 81%
    19:00 +11°C° 0 mm 6 m/S 771 mmHg 86%
    20:00 +11°C° 0 mm 6 m/S 771 mmHg 86%
    21:00 +11°C° 0 mm 6 m/S 771 mmHg 85%
    22:00 +11°C° 0 mm 6 m/S 771 mmHg 85%
    23:00 +11°C° 0 mm 6 m/S 771 mmHg 85%

    22 Dezember, Samstag

    Zeit Temperatur Niederschläge Wind Luftdruck Luftfeuchtigkeit
    00:00 +11°C° 0 mm 6 m/S 770 mmHg 86%
    01:00 +11°C° 0 mm 6 m/S 770 mmHg 86%
    02:00 +11°C° 0 mm 6 m/S 770 mmHg 85%
    03:00 +11°C° 0 mm 7 m/S 769 mmHg 85%
    04:00 +12°C° 0 mm 7 m/S 769 mmHg 85%
    05:00 +12°C° 0 mm 7 m/S 769 mmHg 86%
    06:00 +12°C° 0 mm 7 m/S 769 mmHg 86%
    07:00 +12°C° 0 mm 7 m/S 769 mmHg 87%
    08:00 +14°C° 0 mm 7 m/S 769 mmHg 83%
    09:00 +14°C° 0 mm 7 m/S 769 mmHg 80%
    10:00 +15°C° 0 mm 7 m/S 769 mmHg 77%
    11:00 +15°C° 0 mm 7 m/S 769 mmHg 75%
    12:00 +16°C° 0 mm 7 m/S 769 mmHg 72%
    13:00 +17°C° 0 mm 7 m/S 768 mmHg 70%
    14:00 +16°C° 0 mm 7 m/S 768 mmHg 72%
    15:00 +16°C° 0 mm 7 m/S 768 mmHg 74%
    16:00 +16°C° 0 mm 7 m/S 768 mmHg 77%
    17:00 +15°C° 0 mm 6 m/S 768 mmHg 80%
    18:00 +14°C° 0 mm 6 m/S 768 mmHg 84%
    19:00 +14°C° 0 mm 6 m/S 768 mmHg 88%
    20:00 +14°C° 0 mm 6 m/S 768 mmHg 87%
    21:00 +14°C° 0 mm 6 m/S 768 mmHg 87%
    22:00 +14°C° 0 mm 6 m/S 768 mmHg 87%
    23:00 +14°C° 0 mm 6 m/S 768 mmHg 86%

    23 Dezember, Sonntag

    Zeit Temperatur Niederschläge Wind Luftdruck Luftfeuchtigkeit
    00:00 +14°C° 0 mm 6 m/S 768 mmHg 86%
    01:00 +14°C° 0 mm 6 m/S 767 mmHg 85%
    02:00 +14°C° 0 mm 6 m/S 767 mmHg 85%
    03:00 +14°C° 0 mm 6 m/S 767 mmHg 84%
    04:00 +14°C° 0 mm 7 m/S 767 mmHg 83%
    05:00 +14°C° 0 mm 6 m/S 767 mmHg 83%
    06:00 +14°C° 0 mm 6 m/S 767 mmHg 84%
    07:00 +14°C° 0 mm 6 m/S 767 mmHg 84%
    08:00 +14°C° 0 mm 6 m/S 767 mmHg 82%
    09:00 +15°C° 0 mm 7 m/S 768 mmHg 79%
    10:00 +16°C° 0 mm 7 m/S 768 mmHg 77%
    11:00 +17°C° 0 mm 7 m/S 768 mmHg 73%
    12:00 +18°C° 0 mm 7 m/S 767 mmHg 70%
    13:00 +20°C° 0 mm 7 m/S 767 mmHg 66%
    14:00 +18°C° 0 mm 7 m/S 767 mmHg 69%
    15:00 +17°C° 0 mm 7 m/S 767 mmHg 71%
    16:00 +17°C° 0 mm 6 m/S 767 mmHg 74%
    17:00 +16°C° 0 mm 6 m/S 767 mmHg 78%
    18:00 +15°C° 0 mm 6 m/S 767 mmHg 82%
    19:00 +14°C° 0 mm 6 m/S 767 mmHg 86%
    20:00 +14°C° 0 mm 5 m/S 768 mmHg 86%
    21:00 +13°C° 0 mm 5 m/S 768 mmHg 87%
    22:00 +13°C° 0 mm 5 m/S 768 mmHg 87%
    23:00 +13°C° 0 mm 5 m/S 768 mmHg 87%

    24 Dezember, Montag

    Zeit Temperatur Niederschläge Wind Luftdruck Luftfeuchtigkeit
    00:00 +13°C° 0 mm 5 m/S 768 mmHg 87%
    01:00 +13°C° 0 mm 5 m/S 768 mmHg 87%
    02:00 +13°C° 0 mm 5 m/S 768 mmHg 87%
    03:00 +13°C° 0 mm 5 m/S 768 mmHg 87%
    04:00 +12°C° 0 mm 5 m/S 768 mmHg 86%
    05:00 +12°C° 0 mm 5 m/S 768 mmHg 86%
    06:00 +12°C° 0 mm 5 m/S 768 mmHg 85%
    07:00 +12°C° 0 mm 5 m/S 768 mmHg 84%
    08:00 +13°C° 0 mm 5 m/S 768 mmHg 80%
    09:00 +14°C° 0 mm 4 m/S 768 mmHg 76%
    10:00 +17°C° 0 mm 4 m/S 768 mmHg 72%
    11:00 +18°C° 0 mm 4 m/S 768 mmHg 68%
    12:00 +19°C° 0 mm 4 m/S 768 mmHg 64%
    13:00 +20°C° 0 mm 4 m/S 767 mmHg 59%
    14:00 +19°C° 0 mm 4 m/S 767 mmHg 63%
    15:00 +19°C° 0 mm 4 m/S 767 mmHg 67%
    16:00 +18°C° 0 mm 3 m/S 767 mmHg 70%
    17:00 +17°C° 0 mm 3 m/S 767 mmHg 76%
    18:00 +14°C° 0 mm 3 m/S 768 mmHg 82%
    19:00 +14°C° 0 mm 2 m/S 768 mmHg 88%
    20:00 +14°C° 0 mm 2 m/S 768 mmHg 87%
    21:00 +13°C° 0 mm 2 m/S 768 mmHg 86%
    22:00 +13°C° 0 mm 2 m/S 768 mmHg 85%
    23:00 +13°C° 0 mm 2 m/S 768 mmHg 83%
    Mehr zeigen